Showing default

INSAT 1B, 14318

Orbit data source: Space-Track

INSAT 1B, 14318 is a payload satellite owned by ISRO (IN) in GEO that was launched on Tue, 30 Aug 1983 UTC via an SPACE SHUTTLE launch vehicle from the Air Force Eastern Test Range (AFETR). Payloads include a variety of satellites, spacecraft, and rockets equipped with specific instruments for various scientific and technological missions. These include communications satellites like Starlink; space stations such as the ISS; scientific satellites like the Hubble; Earth observation satellites from companies like Planet Labs, Umbra, and HawkEye 360; GPS; miniature CubeSats for education and research; and military/defense satellites.

Not visible in the next 10 days
INSAT 1B details
Identifier
14318, 1983-089B
Orbit
GEO
Last TLE update1 day ago
Origin
Flag of INISRO (IN / IND)
ManufacturerFord Ae
MissionNon-operational Civil Com/Cal
Bus & MotorINSAT, R-4D-11
Mass1,194 kg wet, ~550 kg dry
Launch date (UTC)
1983-08-30 (41 years ago)
Launch vehicle
SPACE SHUTTLE
Launch site
Air Force Eastern Test Range (AFETR)
Object type
Payload
Rocket body
Debris
Shape & HBRHex Poly + 1 Pan, 2.18 m
Radar Cross Section2.690 m², Large (>1 m²)

Expand to show TLE details & history

TLE from 1 day ago
0 INSAT 1B
1 14318U 83089B   24325.09280354  .00000004  00000-0  00000-0 0  9996
2 14318  11.9608 330.9279 0014609 233.5471 308.7963  1.00375860119458
Epoch: 2024-11-20T02:13Z
Definitive object data (Epoch: 2024-11-20T02:13:38.225Z)
Latitude-0.46807°
Longitude60.08207°
Altitude35,718.692 km
Speed3.079 km/s
True Right ascension10h 12m 20s
True Declination0° 28' 03"
Sunlit
Object was in daylight at TLE epoch
Visualization TLE readout
Latitude-11.09553°
Longitude125.44925°
Altitude35,699.317 km
Speed3.08 km/s
Apparent Right ascension14h 39m 56s
Apparent Declination-14° 47' 34"
Sunlit
Object is in daylight
Visualization observer readout
Local Sidereal Time03:32:08
Azimuth28.113° NE
Elevation-62.406°
Doppler factor1
Orbital elements
Apogee altitude35,820.005 km
Perigee altitude35,696.891 km
Semi-major axis42,136.585 km
Eccentricity0.0014609
Inclination11.9608°
RAAN330.9279°
Arg. of periapsis233.5471°
True anomaly308.66568°
Mean anomaly308.7963°
Eccentric anomaly308.731°
Mean motion0.25093 °/min
BSTARUnknown
Orbital period1434.66 mins
Loading historical data...
14318 neighbors
Authenticating...
Loading maneuver chart data...
Loading historical data...
Loading historical data...
Loading historical data...
Loading historical data...
Loading historical data...
Loading historical data...
Loading historical data...
Other satellites on launch #89 in the year 1983 (1983-08-30 UTC)

INSAT 1B Visibility forecast

Observer location: undefined°, undefined

INSAT 1B is not visible in the next 10 days
Span
Click to sort rows by Start time (UTC) header in descending order
Start Az.
Max El. time (UTC)
Max El. Az.
Max El.
End time (UTC)
End Az.
|